Location: *
(43.2048°N, 0.1612°E)
Time: 21:59:58
(UTC+00:00)

Helios 1A - Pass Details

Date: 30 September 2023
Orbit: 572 x 586 km, 98.3° (Epoch: 01 December)

Event Time Altitude Azimuth Distance (km) Brightness Sun altitude
Rises 04:27:31 0° 165° (SSE) 2,802 6.5 -16.7°
Reaches altitude 10° 04:29:40 10° 165° (SSE) 1,904 5.6 -16.3°
Maximum altitude 04:33:48 89° 86° (E) 591 2.9 -15.6°
Drops below altitude 10° 04:37:57 10° 347° (NNW) 1,908 5.5 -14.8°
Sets 04:40:06 0° 347° (NNW) 2,809 6.4 -14.4°
